LEMUR-2-WANLI (44402 NORAD) Tracking and Keplerian Element Data

This shows tracking and keplerian element data for the satellite.

Feedback or suggestion? Click here.




ElementValue
Catalog44402
NameLEMUR-2-WANLI
Epoch Orbit195
Epoch Day199.40600278
Epoch Year2019
RAAN161.1055
Inclination97.4886
Eccentricity0.0024395
Argument of Perigee197.6692
Mean Anonmoly162.3692
Mean Motion15.11740373
Decay Rate4.66E-06
L11 44402U 19038S 19199.40600278 .00000466 00000-0 30980-4 0 9991
L22 44402 97.4886 161.1055 0024395 197.6692 162.3692 15.11740373 1956

Live tracking and technical data element details for LEMUR-2-WANLI (NORAD 44402). LEMUR-2-WANLI can be tracked NOW for your location showing map with azimuth and elevation plus other details from your city location.

Track the satellite on the map from your city or location and see movement details for azimuth, elevation, latitude, longitude, range, height, and movement on the map or in text.







IsCatalogInMostPopularTable: catalog: 44402, numindb: 2
Update: records affected: 1



GetName: 44402 LEMUR-2-WANLI

Hit Count: updated at: Fri, 19 Jul 2019 07:43:43 GMT